Showing default

QIANFAN-102, 66044

Orbit data source: Space-Track

QIANFAN-102, 66044 is a Chinese payload satellite in LEO that was launched on Fri, 17 Oct 2025 UTC via a CHANG ZHENG 6A launch vehicle from the Taiyaun Space Center, China (TSC). Payload-class satellites include a variety of spacecraft equipped with specific instruments for various scientific and technological missions. These include communications satellites like Starlink; space stations such as the ISS; scientific satellites like the Hubble; Earth observation satellites from companies like Planet Labs, Umbra, and HawkEye 360; GPS; miniature CubeSats for education and research; and military/defense satellites.

Loading next visibility...
Identifier
66044, 2025-233M
Orbit
LEO
Country
Flag of CNCN / PRC
Related business
Manufacturer
SECM
Mission
Operational Commercial Communications
Bus & Motor
QIANFAN, Unknown motor
Mass
267 kg wet, ~267 kg dry
Launch date (UTC)
2025-10-17 (8 months ago)
Launch vehicle
CHANG ZHENG 6A
Launch site
Taiyaun Space Center, China (TSC)
Object type
Payload
Rocket body
Debris
Shape & HBR
Box + 1 Pan, 14.5 m
Radar Cross Section
13.200 m², Large (>1 m²)

Expand to show TLE details & history
Last TLE update: 11 hours ago

TLE from 11 hours ago
0 QIANFAN-102
1 66044U 25233M   26177.58442795  .00000107  00000-0  14763-3 0  9994
2 66044  88.9998  42.1528 0002015  85.2478 274.8903 13.51013301 34500
Epoch: 2026-06-26T14:01Z
TLE epoch observation values (Epoch: 2026-06-26T14:01:34.574Z)
Latitude
-0.00007°
Longitude
-82.9521°
Altitude
1,071.358 km
Speed
7.316 km/s
True Right ascension
02h 48m 36s
True Declination
0° 00' 00"
Sunlit
Object was in daylight at epoch
Visualization orbit readout
Latitude
Unknown
Longitude
Unknown
Altitude
Unknown
Speed
Unknown
Apparent Right ascension
Unknown
Apparent Declination
Unknown
Sunlit
N/A
Visualization observer readout
Local Sidereal Time
12:08:42
Azimuth
Unknown
Elevation
Unknown
Doppler factor
Unknown
Orbital elements
Apogee altitude
1,067.084 km
Perigee altitude
1,064.084 km
Semi-major axis
7,443.721 km
Eccentricity
0.0002
Inclination
88.9998°
RAAN
42.1528°
Arg. of periapsis
85.2478°
True anomaly
274.86729°
Mean anomaly
274.8903°
Eccentric anomaly
274.8788°
Mean motion
3.37954 °/min
Orbital period
106.52 mins
BSTAR
0.00014763
Loading maneuver chart data...
Computing Atmospheric mass density...
Loading historical data...
Loading historical data...
Loading historical data...
Loading historical data...
Loading historical data...
Loading historical data...
Loading historical data...

Documentation

Showing up to 5 results
|